Погода в Кутафине

Россия / Орловская область     52°38′26″N   35°36′38″E
темп.,
°C
ветер,
м/с
пор.,
м/с
влажн.,
%
обл.,
%
осадки,
мм/ч
давл.,
гПа
погр.,
м
28 ноября, вс
вс2800:00+5ю6149781 0.0 1002399
03:00+5юз51195100 0.1 1003473
06:00+2юз38954 0.0 1004203
09:00+1юз38923 0.0 1006183
12:00+4юз367564 0.0 1007250
15:00+5ююз237696 0.0 100867
18:00+3юв3488100 0.0 100857
21:00+3юв51196100 0.0 1007238
29 ноября, пн
пн2900:00+3юв51296100 0.0 1007275
03:00+4юв51196100 0.0 1005264
06:00+3юв4997100 0.0 1003190
09:00+4в3799100 0.6 1000156
12:00+5вюв4899100 0.4 998257
15:00+5вюв3699100 1.4 995167
18:00+7юв41099100 0.0 992290
21:00+6всв4899100 3.3 986223
30 ноября, вт
вт3000:00+7ююв41098100 7.4 979364
03:00+7юз5998100 11.5 976422
06:00+6з5998100 1.1 976400
09:000зюз142196100 4.2 9831048
12:00+1зюз121986100 2.6 9871162
15:00+1юз111789100 2.7 9881246
18:000юз10159093 0.2 9891075
21:00−2зюз9159091 0.3 9901033
1 декабря, ср
ср100:00−2зюз81495100 0.4 9911094
03:00−2з81394100 1.4 9931021
06:00−2з81383100 0.3 9941059
09:00−3з81287100 0.4 996939
12:00−3з7108498 0.1 9981005
15:00−2з6108013 0.1 998853
18:00−4зюз410915 0.0 999339
21:00−5з49945 0.0 1001324
2 декабря, чт
чт200:00−6зюз37955 0.0 1002180
03:00−5ююз4993100 0.0 1002259
06:00−2ю61491100 0.0 1000501
09:000ююз81597100 0.9 998757
12:00+1юз81698100 0.8 999623
15:00+2юз81596100 0.8 1000584
18:00+3юз81390100 0.0 1001699
21:00+1юз71591100 0.1 1004436